Wind_Speed
14 14 17 19 25 26 23 11 12 10 12 15 14 12 10 6 6 4 3 6 10 15 19 27 34 30 33 30 29 30 29 30
29 28 23 21 22 19 18 9 16 14 14 14 12 8 5 4 3 3 6 12 16 20 26 30 29 26 23 25 31 32 34 36
27 26 24 21 17 11 9 12 13 16 13 8 5 4 4 3 6 10 14 18 23 26 28 23 21 23 25 29 33 35 34 29
22 20 19 16 16 13 10 7 5 2 2 2 1 5 12 13 16 20 24 23 22 25 20 21 25 28 30 29 26 24 25 25
20 17 14 11 12 10 8 8 7 5 5 10 14 19 21 23 24 23 19 22 23 22 27 29 27 23 24 23 22 22 22 23
15 11 9 9 9 9 10 12 14 12 12 15 18 18 18 20 20 21 21 20 20 27 25 19 23 22 22 22 22 22 23 24
8 7 7 7 7 6 5 4 5 9 13 15 15 16 16 15 16 17 18 21 28 25 21 23 23 28 23 20 19 19 20 16
6 4 3 5 5 3 3 4 9 10 11 12 14 14 15 17 19 20 30 28 22 21 22 24 29 22 20 20 21 19 21 25
11 8 7 4 6 5 5 9 13 13 14 15 16 18 21 23 21 27 28 27 23 18 21 26 23 21 20 19 19 20 19 17
21 17 12 8 5 7 9 12 14 15 17 20 23 25 28 27 32 30 30 25 19 20 23 23 21 19 20 19 18 19 20 17
14 11 8 9 10 11 13 15 17 19 20 19 23 26 26 31 26 25 26 23 22 21 27 23 17 16 20 19 20 21 19 21
12 8 6 8 12 16 17 14 14 14 17 21 25 27 27 28 25 25 26 24 22 21 25 21 21 25 22 22 23 23 24 23
10 8 10 14 18 16 14 13 13 16 20 22 23 26 29 29 30 34 32 27 19 20 20 20 23 23 23 25 26 25 24 26
6 10 16 17 12 12 14 15 15 18 19 15 22 24 27 29 30 29 13 16 30 13 19 24 21 20 25 24 27 24 25 28
10 13 10 9 10 14 16 14 18 20 21 20 26 30 25 23 25 25 31 35 24 11 17 15 19 21 22 25 25 27 28 31
11 8 6 9 13 12 13 16 17 18 23 28 32 32 27 30 29 29 31 23 16 12 11 16 20 20 20 24 28 28 32 34
6 5 8 10 8 13 11 15 21 25 28 29 29 31 31 33 35 26 17 17 6 13 14 17 19 17 25 24 28 32 30 28
5 8 8 9 11 12 17 20 24 24 23 24 31 30 33 38 27 24 19 17 6 11 15 17 17 24 22 27 28 28 28 29
7 6 10 9 13 16 19 23 20 20 23 29 29 32 36 32 21 23 16 5 13 12 11 17 23 22 25 27 29 29 29 30
Wind_Direction
154 142 161 177 189 195 197 194 135 167 204 189 200 212 227 207 188 197 249 271 290 296 302 306 311 307 310 311 314 313 311 308
97 104 120 146 159 158 141 138 171 182 187 181 185 174 136 164 187 235 275 292 292 303 305 310 311 311 311 311 311 310 312 314
93 98 104 115 119 116 120 120 145 167 178 181 167 146 182 257 282 286 285 298 309 315 311 305 302 304 308 311 311 312 314 315
97 92 96 108 109 113 111 109 99 79 309 262 242 295 298 283 282 301 306 312 314 312 305 305 306 310 314 313 314 316 315 313
104 102 99 90 73 55 51 46 30 2 333 320 314 317 311 305 304 308 300 306 309 304 305 307 313 321 324 325 320 316 313 316
107 104 89 81 61 43 11 355 350 341 330 321 318 316 305 298 292 290 289 291 294 303 310 318 326 332 320 314 315 318 318 318
82 72 60 45 40 42 21 333 303 316 317 312 306 301 293 281 282 290 302 302 304 311 319 329 326 324 320 318 317 316 316 311
136 147 119 59 63 41 355 301 315 319 308 295 288 283 289 294 298 299 304 301 310 320 326 323 322 324 319 315 313 309 306 309
162 173 179 137 107 69 15 342 329 321 313 309 312 316 320 319 313 315 314 316 317 316 315 325 326 325 327 329 327 323 321 322
115 112 104 87 46 3 339 330 326 319 317 318 322 328 331 322 319 318 316 311 300 305 323 323 326 320 320 321 323 323 323 322
103 91 69 43 17 5 347 337 328 322 326 334 334 327 319 319 310 308 305 297 298 314 325 325 325 315 314 313 316 318 316 321
102 89 55 20 360 349 347 350 354 350 338 330 329 323 317 313 304 296 299 305 312 312 325 319 315 317 320 318 316 314 314 313
98 52 11 353 346 351 0 354 351 345 339 331 322 326 323 313 304 295 296 297 297 320 306 302 309 312 316 313 315 315 313 313
34 356 348 344 351 354 348 339 336 325 332 338 327 335 330 320 312 308 283 256 290 310 295 303 304 309 313 312 312 303 303 307
360 353 1 6 348 339 334 322 319 318 313 314 324 330 331 322 320 307 306 293 302 288 278 287 307 311 309 309 307 304 306 307
9 16 4 348 338 329 315 315 312 316 324 327 332 336 335 330 333 320 320 299 292 289 291 315 310 310 311 310 307 305 311 312
32 14 351 340 328 318 320 319 324 330 329 332 332 331 327 333 334 320 302 288 273 290 303 314 307 311 313 309 308 313 317 318
4 355 349 334 328 323 325 331 334 330 328 332 331 326 331 335 331 322 302 301 305 286 322 307 309 315 312 312 313 317 318 319
352 353 337 330 323 324 329 334 332 325 328 327 323 327 331 336 330 320 295 246 284 311 299 316 317 315 319 323 320 320 319 317
Height
1542 1542 1544 1546 1549 1553 1555 1557 1560 1563 1564 1564 1565 1564 1565 1565 1566 1565 1564 1564 1562 1560 1558 1555 1551 1550 1546 1543 1539 1537 1533 1529
1544 1544 1546 1549 1552 1554 1555 1559 1560 1562 1564 1565 1564 1564 1566 1565 1563 1562 1562 1561 1559 1556 1554 1552 1548 1545 1541 1538 1535 1531 1527 1524
1548 1551 1555 1558 1557 1559 1560 1562 1562 1563 1564 1563 1565 1566 1565 1564 1561 1560 1558 1556 1555 1552 1550 1548 1544 1540 1538 1535 1532 1526 1523 1520
1551 1552 1556 1559 1561 1563 1563 1564 1564 1565 1565 1565 1565 1565 1565 1562 1559 1557 1555 1553 1551 1548 1546 1543 1539 1536 1533 1530 1527 1524 1520 1518
1554 1556 1559 1561 1561 1562 1562 1562 1562 1562 1562 1562 1561 1560 1559 1557 1556 1553 1550 1548 1546 1543 1541 1538 1535 1531 1528 1525 1523 1522 1519 1515
1554 1557 1558 1560 1561 1561 1561 1560 1559 1558 1557 1556 1555 1554 1553 1552 1551 1548 1546 1544 1541 1538 1535 1532 1529 1527 1524 1521 1518 1516 1514 1512
1554 1557 1558 1559 1559 1559 1559 1558 1558 1557 1555 1553 1552 1551 1550 1548 1547 1546 1544 1538 1534 1533 1529 1526 1524 1522 1518 1516 1513 1511 1509 1507
1556 1558 1559 1559 1560 1560 1560 1558 1557 1556 1554 1553 1551 1550 1549 1547 1545 1540 1541 1536 1531 1529 1525 1523 1519 1515 1513 1511 1509 1506 1503 1501
1558 1560 1560 1559 1559 1560 1560 1559 1557 1555 1553 1551 1549 1548 1546 1544 1540 1536 1534 1530 1526 1524 1521 1517 1514 1511 1508 1505 1504 1502 1500 1495
1558 1559 1560 1560 1560 1559 1559 1558 1556 1554 1552 1550 1547 1544 1541 1539 1536 1532 1528 1525 1522 1520 1515 1511 1510 1508 1505 1501 1499 1497 1495 1492
1560 1560 1560 1559 1558 1557 1556 1555 1552 1550 1548 1546 1544 1541 1538 1534 1531 1527 1524 1521 1518 1515 1512 1509 1504 1500 1500 1498 1495 1492 1489 1486
1558 1559 1559 1559 1557 1555 1554 1551 1549 1548 1546 1544 1541 1538 1534 1530 1527 1524 1521 1518 1515 1512 1507 1504 1503 1501 1497 1494 1493 1488 1485 1481
1558 1558 1556 1555 1553 1552 1551 1549 1547 1546 1544 1541 1538 1534 1531 1527 1523 1519 1515 1511 1509 1507 1504 1499 1497 1495 1493 1491 1489 1484 1480 1476
1555 1554 1551 1551 1551 1550 1548 1546 1544 1542 1540 1537 1533 1530 1526 1523 1518 1514 1511 1505 1502 1498 1500 1500 1493 1490 1488 1487 1484 1479 1475 1471
1552 1550 1550 1550 1549 1547 1545 1542 1540 1537 1535 1532 1528 1525 1521 1518 1514 1509 1505 1501 1497 1493 1494 1490 1490 1485 1484 1481 1478 1474 1469 1464
1550 1549 1549 1548 1546 1544 1541 1539 1536 1533 1530 1527 1523 1520 1516 1513 1509 1504 1499 1496 1493 1492 1491 1488 1485 1481 1479 1477 1473 1468 1462 1457
1548 1548 1547 1544 1542 1540 1538 1535 1533 1529 1526 1522 1519 1514 1510 1506 1501 1497 1494 1490 1488 1489 1486 1484 1480 1477 1475 1471 1466 1460 1455 1450
1546 1545 1542 1540 1539 1537 1534 1532 1529 1524 1521 1517 1513 1509 1504 1499 1495 1491 1488 1486 1484 1483 1482 1480 1477 1473 1469 1465 1460 1454 1449 1444
1543 1541 1540 1538 1536 1534 1531 1528 1523 1519 1515 1512 1508 1504 1499 1494 1490 1486 1482 1481 1481 1481 1478 1476 1473 1469 1465 1459 1453 1448 1444 1439